Location: Alpha Ridge Park
(39.3209°N, 76.9128°W)
Time: 19:22:29
(UTC-04:00)

S-56A Canister/Altair - Pass Details

Date: 19 May 2019
Orbit: 633 x 2499 km, 38.9° (Epoch: 19 June)

Event Time Altitude Azimuth Distance (km) Brightness Sun altitude
Rises 06:20:11 0° 272° (W) 4,328 10.8 4.3°
Reaches altitude 10° 06:22:42 10° 272° (W) 3,570 10.4 4.8°
Maximum altitude 06:32:21 88° 185° (S) 1,922 9.7 6.5°
Drops below altitude 10° 06:46:26 10° 98° (E) 5,010 13.1 9.1°
Sets 06:50:38 0° 98° (E) 6,123 13.4 9.9°
